{"data":{"norad_id":56050,"intl_designator":"2023-043E","name":"ONEWEB-0548","alt_names":[],"object_type":"PAYLOAD","status":"ACTIVE","operator":null,"country":"UK","launch_date":"2023-03-26","launch_site_code":"SRILR","launch_vehicle":null,"mission":null,"orbit_class":"UNKNOWN","rcs_meters":null,"size_class":null,"mass_kg":null,"dimensions":null,"purposes":["comms"],"wikipedia_slug":null,"has_3d_model":false,"image_url":null,"decayed_at":null,"tle_current":{"epoch":"2026-05-24T22:40:54.456672Z","epoch_age_seconds":86639,"freshness":"FRESH","line1":"1 56050U 23043E   26144.94507473  .00000016  00000+0  94387-5 0  9996","line2":"2 56050  87.9104 233.3851 0002366  92.5195 267.6207 13.16594726155904","mean_motion":13.16594726,"eccentricity":0.0002366,"inclination_deg":87.9104,"raan_deg":233.3851,"arg_perigee_deg":92.5195,"mean_anomaly_deg":267.6207,"bstar":9.4387e-6,"rev_number":15590,"period_min":109.37306458571,"perigee_km":1195.9624119445,"apogee_km":1199.5473239764,"semimajor_km":7575.8918679605,"source":"CELESTRAK","updated_at":"2026-05-25T13:38:22.700433Z"}}}